This is the latest recevied weather packets stored in our database for station/object DL9RAN-11. If no packets are shown the sender has not sent any weather packets the latest 10 day(s).
| Time | Temp. | Humidity | Pressure | Rain* | Wind** | Luminosity | Snow |
|---|---|---|---|---|---|---|---|
| 1777675243 | 12.22° C | 53% | 1028.1 hPa | - | - | - | - |
| 1777674943 | 12.22° C | 53% | 1028.1 hPa | - | - | - | - |
| 1777674643 | 12.22° C | 52% | 1028.1 hPa | - | - | - | - |
| 1777674348 | 12.22° C | 53% | 1028.1 hPa | - | - | - | - |
| 1777672717 | 12.22° C | 52% | 1028 hPa | - | - | - | - |
| 1777671754 | 12.78° C | 52% | 1028 hPa | - | - | - | - |
| 1777671453 | 12.78° C | 51% | 1028 hPa | - | - | - | - |
| 1777671153 | 12.78° C | 50% | 1028 hPa | - | - | - | - |
| 1777669528 | 13.89° C | 47% | 1028.3 hPa | - | - | - | - |
| 1777669228 | 14.44° C | 47% | 1028.3 hPa | - | - | - | - |
| 1777667272 | 14.44° C | 47% | 1028 hPa | - | - | - | - |
| 1777666641 | 14.44° C | 47% | 1028.2 hPa | - | - | - | - |
| 1777665347 | 14.44° C | 46% | 1027.9 hPa | - | - | - | - |
| 1777664053 | 15.56° C | 45% | 1027.8 hPa | - | - | - | - |
| 1777663422 | 15.56° C | 44% | 1027.7 hPa | - | - | - | - |
| 1777663122 | 15.56° C | 44% | 1027.8 hPa | - | - | - | - |
| 1777662490 | 16.11° C | 43% | 1027.7 hPa | - | - | - | - |
| 1777661527 | 16.11° C | 43% | 1027.7 hPa | - | - | - | - |
| 1777661227 | 16.67° C | 42% | 1027.7 hPa | - | - | - | - |
| 1777659933 | 16.67° C | 42% | 1027.7 hPa | - | - | - | - |
| 1777658970 | 17.22° C | 42% | 1027.6 hPa | - | - | - | - |
| 1777658670 | 17.22° C | 42% | 1027.6 hPa | - | - | - | - |
| 1777658038 | 17.78° C | 41% | 1027.7 hPa | - | - | - | - |
| 1777656744 | 17.78° C | 41% | 1027.7 hPa | - | - | - | - |
| 1777656444 | 17.78° C | 40% | 1027.7 hPa | - | - | - | - |
* Rain since midnight (hover to see other rain measurements)
** Current wind speed in m/s (hover to see current wind gust speed)